#timestamp,LO_Frequency,Hit,StdDev 
1606395615.2,286046997.9,P
1606395635.0,286046995.7,P
1606395635.9,286046995.7,N
1606395655.8,286046995.8,N
1606395675.6,286046994.9,Y
1606395695.4,286047001.2,P
1606395715.3,286046999.0,N
1606395735.1,286046998.3,N
1606395755.9,286047001.1,N
1606395775.7,286047000.5,N
1606395795.5,286047002.8,N
1606395815.4,286047000.7,N
1606395835.2,286047000.2,N
1606395855.0,286046999.8,N
1606395855.9,286046999.8,N
1606395875.8,286047002.0,N
1606395895.6,286047003.9,N
1606395915.5,286047006.0,Y
1606395935.3,286047005.4,P
1606395955.1,286047005.5,N
1606395975.9,286047006.0,N
1606395995.7,286047005.6,N
1606396015.5,286047005.5,N
1606396035.4,286047006.0,Y
1606396055.2,286047000.3,P
1606396075.1,286046998.6,N
1606396076.0,286046998.6,N
1606396095.8,286046998.1,N
1606396115.6,286047000.2,N
1606396135.5,286047002.7,N
1606396155.3,286047002.0,N
1606396175.1,286047004.3,N
1606396195.9,286047002.5,N
1606396215.7,286047002.2,N
1606396235.6,286047001.6,N
1606396255.4,286047001.8,N
1606396275.2,286047003.5,N
1606396295.1,286047001.5,N
1606396296.0,286047001.5,N
1606396315.8,286047003.1,N
1606396335.6,286047005.6,N
1606396355.5,286047005.5,N
1606396375.3,286047006.0,N
1606396395.2,286047005.7,N
1606396415.9,286047003.5,N
1606396435.7,286047005.4,N
1606396455.6,286047006.0,N
1606396475.4,286047005.3,N
1606396495.2,286047006.0,N
1606396515.1,286047003.4,N
1606396516.0,286047003.4,N
1606396535.8,286047004.9,N
1606396555.7,286047006.7,N
1606396575.5,286047007.1,N
1606396595.3,286047007.0,N
1606396615.2,286047007.4,N
1606396635.0,286047007.4,Y
1606396635.9,286047007.4,P
1606396655.8,286047003.9,N
1606396675.6,286047004.6,N
1606396695.4,286047005.7,Y
1606396715.3,286047000.1,P
1606396735.1,286047001.5,N
1606396755.8,286047003.8,N
1606396775.7,286047001.8,N
1606396795.5,286047002.8,N
1606396815.4,286047011.9,Y
1606396835.2,286046997.4,P
1606396855.0,286046999.1,N
1606396855.9,286046999.1,N
1606396875.8,286046997.9,N
1606396895.6,286046997.6,N
1606396915.5,286046997.0,N
1606396935.3,286046997.0,N
1606396955.1,286046995.3,N
1606396975.9,286046994.9,N
1606396995.7,286046997.2,N
1606397015.5,286046996.9,N
1606397035.4,286046996.6,N
1606397055.2,286046998.3,N
1606397075.0,286046998.7,N
1606397076.0,286046998.7,N
1606397095.8,286046998.6,N
1606397115.6,286046998.4,N
1606397135.5,286046998.8,N
1606397155.3,286046998.6,N
1606397175.1,286046998.3,N
1606397195.9,286046997.0,N
1606397215.7,286046996.5,N
1606397235.5,286046997.5,N
1606397255.4,286046997.2,N
1606397275.2,286046995.0,Y
1606397295.1,286046997.0,P
1606397296.0,286046997.0,P
1606397315.8,286046995.6,P
1606397335.6,286046997.4,Y
1606397355.5,286047001.0,P
1606397375.3,286047000.7,N
1606397395.2,286046998.4,N
1606397415.9,286047002.2,N
1606397435.7,286047004.2,N
1606397455.6,286047002.3,N
1606397475.4,286047004.4,N
1606397495.2,286047002.8,N
1606397515.1,286046999.8,N
1606397516.0,286046999.8,N
1606397535.8,286047000.1,N
1606397555.7,286047001.5,N
1606397575.5,286047002.6,N
1606397595.3,286046999.9,N
1606397615.2,286047002.6,N
1606397635.9,286046999.8,N
1606397655.7,286047002.5,N
1606397675.6,286047000.2,N
1606397695.4,286047001.8,N
1606397715.2,286047002.1,N
1606397735.1,286047002.2,N
1606397736.0,286047002.2,N
1606397755.8,286047002.1,N
1606397775.7,286047003.0,N
1606397795.5,286047003.2,N
1606397815.3,286047007.2,Y
1606397835.2,286047004.4,P
1606397855.0,286047001.3,N
1606397855.9,286047001.3,N
1606397875.8,286047004.0,Y
1606397895.6,286047002.2,P
1606397915.4,286047002.6,P
1606397935.3,286047002.5,P
1606397955.1,286047001.6,Y
1606397975.8,286047000.0,P
1606397995.7,286047000.0,N
1606398015.5,286047001.2,N
1606398035.4,286047000.4,N
1606398055.2,286046999.0,N
1606398075.0,286046998.8,N
1606398075.9,286046998.8,N
1606398095.8,286046996.8,N
1606398115.6,286046995.3,Y
1606398135.5,286046999.5,P
1606398155.3,286046997.1,P
1606398175.1,286046995.4,P
1606398195.9,286046997.3,N
1606398215.7,286046999.5,N
1606398235.5,286046999.2,N
1606398255.4,286046996.6,N
1606398275.2,286046996.7,N
1606398295.0,286046998.9,N
1606398296.0,286046998.9,N
1606398315.8,286046998.7,N
1606398335.6,286046998.1,N
1606398355.5,286046998.7,N
1606398375.3,286047000.7,N
1606398395.1,286047001.2,N
1606398415.9,286046998.9,N
1606398435.7,286046998.2,N
1606398455.6,286046998.9,N
1606398475.4,286046997.0,N
1606398495.2,286046999.6,N
1606398515.1,286046999.6,N
1606398516.0,286046999.6,N
1606398535.8,286046996.6,N
1606398555.6,286046999.3,N
1606398575.5,286046996.5,N
1606398595.3,286046999.2,N
1606398615.2,286046998.3,N
1606398635.9,286046998.6,N
1606398655.7,286046998.3,N
1606398675.6,286046999.5,N
1606398695.4,286046998.4,N
1606398715.3,286047000.2,N
1606398735.1,286047002.2,N
1606398736.0,286047002.2,N
1606398755.8,286047001.0,N
1606398775.7,286047000.8,N
1606398795.5,286047001.2,N
1606398815.3,286047001.1,N
1606398835.2,286046998.2,N
1606398855.0,286046998.9,N
1606398855.9,286046998.9,N
1606398875.8,286046997.0,N
1606398895.6,286046995.4,Y
1606398915.4,286046995.6,P
1606398935.3,286046996.3,N
1606398955.1,286046996.0,N
1606398975.9,286046994.8,Y
1606398995.7,286046997.0,P
1606399015.5,286046997.3,P
1606399035.4,286046997.7,P
1606399055.2,286046997.6,Y
1606399075.0,286046998.4,P
1606399076.0,286046998.4,N
1606399095.8,286046996.9,P
1606399115.6,286046997.0,Y
1606399135.5,286046998.7,P
1606399155.3,286046999.5,N
1606399175.1,286046999.1,N
1606399195.9,286046999.4,N
